Overview Statistics Trail Chart Weather Telemetry Raw packets
 

This is the latest recevied weather packets stored in our database for station/object PP5CFL-2. If no packets are shown the sender has not sent any weather packets the latest 10 day(s).

<< 94 95 96 97 98 99 100 >>
Time Temp. Humidity Pressure Rain* Wind** Luminosity Snow
1787972810 25.56° C 91% 1007 hPa - - - -
1787972510 25° C 93% 1007.1 hPa - - - -
1787972210 25° C 93% 1007.2 hPa - - - -
1787971913 25.56° C 93% 1007.5 hPa - - - -
1787971610 25.56° C 92% 1007.5 hPa - - - -
1787971310 25.56° C 91% 1007.5 hPa - - - -
1787971010 25.56° C 91% 1007.5 hPa - - - -
1787970710 25.56° C 90% 1007.6 hPa - - - -
1787970410 25.56° C 89% 1007.4 hPa - - - -
1787970110 25.56° C 90% 1007.4 hPa - - - -
1787969810 25.56° C 90% 1007.5 hPa - - - -
1787969510 25.56° C 88% 1007.4 hPa - - - -
1787969210 25.56° C 89% 1007.3 hPa - - - -
1787968910 25.56° C 88% 1007.4 hPa - - - -
1787968610 26.11° C 87% 1007.2 hPa - - - -
1787968310 26.11° C 84% 1007.1 hPa - - - -
1787968010 26.11° C 84% 1007 hPa - - - -
1787967710 26.67° C 82% 1006.9 hPa - - - -
1787967410 26.11° C 81% 1007 hPa - - - -
1787967110 26.11° C 83% 1006.9 hPa - - - -
1787966810 26.67° C 83% 1006.9 hPa - - - -
1787966510 26.67° C 80% 1006.8 hPa - - - -
1787966210 26.67° C 78% 1006.7 hPa - - - -
1787965910 26.67° C 78% 1006.6 hPa - - - -
1787965610 26.67° C 77% 1006.7 hPa - - - -

* Rain since midnight (hover to see other rain measurements)
** Current wind speed in m/s (hover to see current wind gust speed)